星链-33849 (STARLINK-33849)

导读

STARLINK-33849是美国SpaceX公司星链(Starlink)星座的成员卫星,于2025年4月25日由美国发射入轨。星链项目旨在构建全球覆盖的低轨卫星互联网通信系统,该卫星承担为偏远地区、移动场景提供高速网络接入服务的任务,依托近地轨道部署优势,可降低通信延迟,扩展全球网络覆盖范围,是SpaceX推进星链星座组网的重要组成部分。

基本信息
目录编号:
63654
目录名称:
STARLINK-33849
国际标识:
2025-083W
轨道中心:
EARTH
卫星名称:
星链-33849
卫星全名:
星链-33849 (STARLINK-33849)
卫星状态:
在轨 (已飞行415 天)
发射日期:
2025-04-25 UTC
国别 :
美国 (US)
星等 :
--
轨道信息
数据来源 国际轨道数据
星历时间: 2026-06-14T01:38:00+0800
10小时前
查看轨道信息
半长轴: 6861.13km
偏心率: 0.0003723
轨道倾角: 43.003°
近地点辐角 279.251°
升交点赤经 182.970°
平近点角 80.792°
近地点: 480.438km
远地点: 485.548km
周期: 94.266分钟
每日圈数: 15.275989
详细信息
固有亮度:
5
最大亮度:
2.5
卫星平台:
Starlink V1.0
覆盖范围:
全球
运营商:
太空探索技术公司
运营商所在国:
美国
制造商(研发单位):
太空探索技术公司
制造商所在国:
美国
使用方式:
暂无
卫星简介
Starlink 计划是 SpaceX 推出的全球卫星互联网项目,通过发射低轨道卫星,为全球尤其是偏远地区提供高速、低延迟的互联网服务。自 2019 年起,Starlink 已部署数千颗卫星,旨在缩小全球数字鸿沟,推动互联网普及。该项目还为军事、航空等行业提供通信支持,带来广泛经济效益。
2D轨道图
3D轨道图
轨道高度分析图
轨道倾角分析图
轨道综合分析图
查看轨道综合分析图